Home > Weather > Sevilla > Past weeks

Flag for Spain Past Weather in Sevilla, Spain — Yesterday and Last 2 Weeks

Now
68 °F

Scattered clouds.


Feels Like: 68 °F
Forecast: 54 / 75 °F
Wind: 9 mph from Southwest

Location: Sevilla / San Pablo

Current Time: May 28, 2016 at 12:05:58 PM

Latest Report: May 28, 2016 at 11:30 AM


Visibility: N/A

Pressure: 30.04 "Hg

Humidity: 73%

Dew Point: 59 °F

Location of SevillaLocation

Past Weather in Sevilla — Graph

°F

Sevilla Temperature Yesterday

Maximum temperature yesterday: 79 °F (at 4:30 PM)
Minimum temperature yesterday: 57 °F (at 7:30 AM)
Average temperature yesterday: 69 °F

High & Low Weather Summary for the Past Weeks

 TemperatureHumidityPressure
High88 °F (May 20, 2:30 PM)100% (May 14, 6:00 AM)30.15 "Hg (May 14, 6:00 AM)
Low52 °F (May 14, 6:00 AM)19% (May 17, 6:30 PM)29.83 "Hg (May 25, 5:30 PM)
Average70 °F60%30.01 "Hg
* Reported May 13 10:00 AM — May 28 10:30 AM, Sevilla, Weather by CustomWeather, © 2016

Note: Actual official high and low records may vary slightly from our data, if they occured in-between our weather recording intervals... More about our weather records

Advertising

Sevilla Weather History for the Previous 24 Hours

Scroll right to see more
 ConditionsComfort  
Time TempWeatherWind HumidityBarometerVisibility
10:30 AM
Sat, May 28
68 °FScattered clouds.7 mph73%30.04 "HgN/A
10:00 AM66 °FScattered clouds.6 mph78%30.04 "HgN/A
9:30 AM64 °FScattered clouds.5 mph83%30.04 "HgN/A
9:00 AM64 °FScattered clouds.5 mph83%30.04 "HgN/A
8:30 AM63 °FPassing clouds.3 mph88%30.04 "HgN/A
8:00 AM59 °FPassing clouds.2 mph94%30.04 "HgN/A
7:30 AM59 °FPassing clouds.No wind94%30.04 "HgN/A
7:00 AM59 °FPassing clouds.1 mph94%30.04 "HgN/A
6:30 AM59 °FPassing clouds.2 mph94%30.04 "HgN/A
6:00 AM59 °FPassing clouds.No wind94%30.04 "HgN/A
5:30 AM61 °FPassing clouds.No wind88%30.04 "HgN/A
5:00 AM61 °FPassing clouds.No wind94%30.04 "HgN/A
4:30 AM61 °FPassing clouds.2 mph94%30.04 "HgN/A
4:00 AM61 °FPassing clouds.2 mph88%30.04 "HgN/A
3:30 AM61 °FPassing clouds.1 mph88%30.04 "HgN/A
2:30 AM63 °FClear.3 mph88%30.04 "Hg10 mi
2:00 AM63 °FPassing clouds.5 mph88%30.04 "HgN/A
1:30 AM64 °FClear.6 mph83%30.04 "Hg10 mi
1:00 AM64 °FClear.7 mph78%30.04 "Hg10 mi
12:30 AM64 °FPassing clouds.9 mph78%30.04 "HgN/A
12:00 AM66 °FPassing clouds.7 mph73%30.04 "HgN/A
11:30 PM
Fri, May 27
66 °FPassing clouds.8 mph68%30.04 "HgN/A
11:00 PM68 °FPassing clouds.12 mph60%30.04 "HgN/A
10:30 PM68 °FPassing clouds.9 mph60%30.01 "HgN/A
10:00 PM70 °FSunny.8 mph57%30.01 "Hg10 mi
9:30 PM70 °FPassing clouds.10 mph57%30.01 "HgN/A
9:00 PM72 °FPassing clouds.12 mph50%30.01 "HgN/A
8:30 PM73 °FPassing clouds.13 mph47%30.01 "HgN/A
8:00 PM75 °FPassing clouds.12 mph44%29.98 "HgN/A
7:30 PM75 °FPassing clouds.12 mph39%29.98 "HgN/A
7:00 PM77 °FPassing clouds.12 mph36%29.98 "HgN/A
6:30 PM77 °FPassing clouds.12 mph36%29.98 "HgN/A
6:00 PM77 °FPassing clouds.13 mph36%29.98 "HgN/A
5:30 PM77 °FPassing clouds.12 mph36%29.98 "HgN/A
5:00 PM77 °FPassing clouds.10 mph34%29.98 "HgN/A
4:30 PM79 °FPassing clouds.13 mph32%29.98 "HgN/A
4:00 PM77 °FPassing clouds.8 mph36%29.98 "HgN/A
3:30 PM77 °FPassing clouds.9 mph36%30.01 "HgN/A
3:00 PM77 °FPassing clouds.9 mph34%30.01 "HgN/A
2:30 PM75 °FPassing clouds.8 mph39%30.01 "HgN/A
2:00 PM75 °FPassing clouds.7 mph39%30.01 "HgN/A
1:30 PM75 °FPassing clouds.9 mph36%30.01 "HgN/A
1:00 PM75 °FPassing clouds.7 mph39%30.01 "HgN/A
12:30 PM73 °FPassing clouds.2 mph41%30.01 "HgN/A
12:00 PM73 °FPassing clouds.1 mph41%30.01 "HgN/A
Weather by CustomWeather, © 2016

See weather overviewHow to use our weather pages